EW0349 Weather Reports


Display with metric or nautical units.
time (UTC)temp
F
wind
direction
speed
MPH
gust
MPH
rain 1hr
in
rain 24hr
in
rain mn
in
humidity
%
barometer
mb
20260506071519 56 285 0.0 0.0 0.00 0.00 0.00 58 1017.2
20260506061533 57 285 0.0 0.0 0.00 0.00 0.00 61 1016.8
20260506044510 57 79 0.0 0.0 0.00 0.00 0.00 56 1016.3
20260506043012 58 79 0.0 0.0 0.00 0.00 0.00 59 1016.2
20260506041507 58 79 0.0 0.0 0.00 0.00 0.00 62 1016.0
20260506040008 58 79 0.0 0.0 0.00 0.00 0.00 64 1015.8
20260506034507 59 79 0.0 0.0 0.00 0.00 0.00 65 1015.5
20260506033006 59 79 0.0 1.0 0.00 0.00 0.00 67 1015.4
20260506031505 60 79 0.0 0.0 0.00 0.00 0.00 67 1015.3
20260506030004 60 79 0.0 0.0 0.00 0.00 0.00 67 1015.1
20260506024512 60 79 0.0 2.0 0.00 0.00 0.00 67 1015.0
20260506023004 61 79 0.0 2.0 0.00 0.00 0.00 67 1015.1
20260506021502 62 79 0.0 4.0 0.00 0.00 0.00 66 1015.1
20260506020005 62 82 0.0 4.0 0.00 0.00 0.00 66 1015.0
20260506014601 63 86 1.0 4.0 0.00 0.00 0.00 65 1014.9
20260506013107 64 104 1.0 3.0 0.00 0.00 0.00 63 1014.9
20260506011607 65 105 0.0 4.0 0.00 0.00 0.00 63 1014.9
20260506010057 65 116 0.0 3.0 0.00 0.00 0.00 63 1014.9
20260506004555 65 116 0.0 3.0 0.00 0.00 0.00 64 1014.9
20260506003055 64 111 0.0 4.0 0.00 0.00 0.00 63 1014.9
20260506001554 63 30 0.0 2.0 0.00 0.00 0.00 64 1014.9
20260506000053 64 19 0.0 3.0 0.00 0.00 0.00 64 1015.1
20260505234602 63 99 1.0 3.0 0.00 0.00 0.00 63 1015.2
20260505233050 63 77 1.0 3.0 0.00 0.00 0.00 63 1015.4
20260505231603 62 81 1.0 4.0 0.00 0.00 0.00 64 1015.4
20260505230051 62 111 0.0 3.0 0.00 0.00 0.00 64 1015.5
20260505224546 62 65 1.0 4.0 0.00 0.00 0.00 64 1015.6
20260505223043 61 290 1.0 4.0 0.00 0.00 0.00 64 1015.7
20260505221541 61 279 2.0 5.0 0.00 0.00 0.00 65 1015.8
20260505220042 61 273 2.0 4.0 0.00 0.00 0.00 64 1016.0
20260505214601 61 275 1.0 4.0 0.00 0.00 0.00 65 1016.0
20260505213039 60 275 0.0 4.0 0.00 0.00 0.00 65 1016.0
20260505211537 60 307 0.0 3.0 0.00 0.00 0.00 64 1016.1
20260505210037 60 181 0.0 4.0 0.00 0.00 0.00 64 1016.2
20260505204535 60 284 1.0 4.0 0.00 0.00 0.00 65 1016.2
20260505203034 59 186 1.0 3.0 0.00 0.00 0.00 64 1016.3
20260505201530 59 146 0.0 2.0 0.00 0.00 0.00 64 1016.3
20260505200040 59 146 0.0 3.0 0.00 0.00 0.00 64 1016.4
20260505194528 58 126 1.0 3.0 0.00 0.00 0.00 64 1016.4
20260505193027 58 360 0.0 4.0 0.00 0.00 0.00 64 1016.4
20260505191525 58 286 0.0 4.0 0.00 0.00 0.00 64 1016.5
20260505190028 58 312 1.0 4.0 0.00 0.00 0.00 64 1016.5
20260505184523 58 360 1.0 2.0 0.00 0.00 0.00 63 1016.4
20260505183028 57 350 0.0 2.0 0.00 0.00 0.00 63 1016.5
20260505181520 57 350 0.0 3.0 0.00 0.00 0.00 63 1016.5
20260505180023 57 232 0.0 3.0 0.00 0.00 0.00 63 1016.4
20260505174518 57 161 0.0 2.0 0.00 0.00 0.00 61 1016.3
20260505173015 56 184 0.0 2.0 0.00 0.00 0.00 61 1016.2
20260505171511 55 185 0.0 3.0 0.00 0.00 0.00 61 1016.1
20260505170010 55 152 1.0 3.0 0.00 0.00 0.00 61 1016.2
20260505164509 55 188 2.0 5.0 0.00 0.00 0.00 60 1016.2
20260505163012 55 23 0.0 1.0 0.00 0.00 0.00 54 1016.0
20260505161504 54 215 0.0 3.0 0.00 0.00 0.00 55 1016.0
20260505153108 53 204 0.0 2.0 0.00 0.00 0.00 49 1016.0
20260505151607 53 206 0.0 2.0 0.00 0.00 0.00 47 1015.9
20260505140109 52 180 0.0 1.0 0.00 0.00 0.00 40 1015.3
20260505124544 52 198 0.0 3.0 0.00 0.00 0.00 38 1014.9
20260505123049 51 293 0.0 1.0 0.00 0.00 0.00 37 1014.9
20260505121542 52 231 0.0 2.0 0.00 0.00 0.00 37 1014.9
20260505120047 52 217 0.0 1.0 0.00 0.00 0.00 36 1014.8
20260505114545 52 231 0.0 3.0 0.00 0.00 0.00 37 1014.8
20260505113038 52 277 0.0 3.0 0.00 0.00 0.00 38 1014.8
20260505111536 52 164 0.0 2.0 0.00 0.00 0.00 38 1014.7
20260505101542 51 148 0.0 3.0 0.00 0.00 0.00 36 1014.4
20260505100034 51 136 0.0 1.0 0.00 0.00 0.00 34 1014.4
20260505094536 51 136 0.0 2.0 0.00 0.00 0.00 32 1014.4
20260505093031 51 136 0.0 2.0 0.00 0.00 0.00 27 1014.2
20260505091526 51 136 0.0 2.0 0.00 0.00 0.00 26 1014.1
20260505090025 51 136 0.0 1.0 0.00 0.00 0.00 23 1014.1
20260505084525 50 136 0.0 1.0 0.00 0.00 0.00 25 1014.2
20260505083023 50 136 0.0 4.0 0.00 0.00 0.00 27 1014.0
20260505081520 50 209 0.0 1.0 0.00 0.00 0.00 29 1013.9
20260505080018 50 210 0.0 2.0 0.00 0.00 0.00 31 1013.9
20260505074517 50 211 0.0 1.0 0.00 0.00 0.00 34 1013.9
20260505073014 50 211 0.0 0.0 0.00 0.00 0.00 42 1013.8